TimePST,TemperatureF,Dew PointF,Humidity,Sea Level PressureIn,VisibilityMPH,Wind Direction,Wind SpeedMPH,Gust SpeedMPH,PrecipitationIn,Events,Conditions,WindDirDegrees,DateUTC
12:08 AM,48.2,48.2,100,30.11,1.8,NW,11.5,-,N/A,,Light Drizzle,320,2013-01-24 08:08:00
12:09 AM,48.2,48.2,100,30.11,1.8,NW,11.5,-,N/A,,Overcast,320,2013-01-24 08:09:00
12:24 AM,48.2,48.2,100,30.10,1.8,NNW,13.8,-,N/A,,Light Drizzle,330,2013-01-24 08:24:00
12:58 AM,47.3,47.3,100,30.10,1.8,NW,13.8,-,0.01,Rain,Light Rain,320,2013-01-24 08:58:00
1:28 AM,48.2,48.2,100,30.09,2.0,NNW,11.5,-,N/A,,Light Drizzle,330,2013-01-24 09:28:00
1:30 AM,48.2,48.2,100,30.09,2.0,NW,12.7,-,N/A,,Overcast,320,2013-01-24 09:30:00
1:40 AM,48.2,48.2,100,30.09,1.8,NW,11.5,-,N/A,,Overcast,320,2013-01-24 09:40:00
1:58 AM,47.5,47.5,100,30.08,1.8,NW,11.5,-,0.00,,Overcast,320,2013-01-24 09:58:00
2:18 AM,48.2,48.2,100,30.08,2.0,NNW,13.8,-,N/A,,Overcast,330,2013-01-24 10:18:00
2:58 AM,47.7,47.7,100,30.09,2.0,NW,11.5,-,N/A,,Overcast,310,2013-01-24 10:58:00
3:18 AM,48.2,48.2,100,30.09,2.5,NW,12.7,-,N/A,,Overcast,310,2013-01-24 11:18:00
3:38 AM,48.2,48.2,100,30.08,2.5,NW,12.7,-,N/A,,Overcast,320,2013-01-24 11:38:00
3:48 AM,48.2,48.2,100,30.08,3.0,NW,12.7,-,N/A,,Overcast,320,2013-01-24 11:48:00
3:58 AM,48.2,48.2,100,30.08,2.5,NNW,11.5,-,N/A,,Overcast,330,2013-01-24 11:58:00
4:08 AM,48.2,48.2,100,30.09,3.0,NNW,12.7,-,N/A,,Overcast,330,2013-01-24 12:08:00
4:28 AM,48.2,48.2,100,30.08,3.0,NNW,12.7,-,N/A,,Overcast,340,2013-01-24 12:28:00
4:48 AM,48.2,48.2,100,30.08,3.0,NNW,10.4,-,N/A,,Overcast,330,2013-01-24 12:48:00
4:58 AM,47.7,47.7,100,30.09,5.0,NNW,9.2,-,N/A,,Overcast,340,2013-01-24 12:58:00
5:08 AM,48.2,48.2,100,30.10,3.0,NNW,8.1,-,N/A,,Overcast,330,2013-01-24 13:08:00
5:58 AM,47.5,47.5,100,30.12,5.0,NW,8.1,-,N/A,,Overcast,310,2013-01-24 13:58:00
6:58 AM,47.7,47.7,100,30.12,5.0,NNW,9.2,-,N/A,,Overcast,340,2013-01-24 14:58:00
7:25 AM,48.2,48.2,100,30.12,3.0,NW,5.8,-,N/A,,Overcast,310,2013-01-24 15:25:00
7:58 AM,47.8,47.8,100,30.13,3.0,NW,4.6,-,N/A,,Overcast,310,2013-01-24 15:58:00
8:58 AM,48.4,48.4,100,30.13,3.0,NW,5.8,-,N/A,,Overcast,310,2013-01-24 16:58:00
9:28 AM,48.2,48.2,100,30.15,3.0,NW,9.2,-,N/A,,Overcast,310,2013-01-24 17:28:00
9:58 AM,49.1,49.1,100,30.16,3.0,NNW,10.4,-,N/A,,Overcast,330,2013-01-24 17:58:00
10:58 AM,51.3,51.3,100,30.16,4.0,NW,10.4,-,N/A,,Overcast,310,2013-01-24 18:58:00
11:58 AM,52.3,52.2,99,30.15,6.0,NW,5.8,-,N/A,,Overcast,310,2013-01-24 19:58:00
12:58 PM,54.5,52.2,92,30.15,10.0,SSW,1.2,-,N/A,,Mostly Cloudy,210,2013-01-24 20:58:00
1:58 PM,55.2,51.6,88,30.16,10.0,SSW,2.3,-,N/A,,Overcast,210,2013-01-24 21:58:00
2:58 PM,55.6,51.4,86,30.15,10.0,NE,2.3,-,N/A,,Overcast,40,2013-01-24 22:58:00
3:58 PM,55.9,51.8,86,30.15,10.0,WNW,2.3,-,N/A,,Overcast,290,2013-01-24 23:58:00
4:40 PM,55.4,53.6,94,30.15,5.0,WSW,2.3,-,N/A,Rain,Light Rain,240,2013-01-25 00:40:00
4:58 PM,55.6,53.2,92,30.16,4.0,West,2.3,-,0.00,Rain,Light Rain,280,2013-01-25 00:58:00
5:27 PM,55.4,53.6,94,30.16,6.0,Calm,Calm,-,N/A,,Overcast,0,2013-01-25 01:27:00
5:58 PM,55.2,53.6,94,30.17,6.0,Calm,Calm,-,0.01,,Overcast,0,2013-01-25 01:58:00
6:58 PM,53.2,53.2,100,30.18,6.0,East,4.6,-,N/A,,Overcast,100,2013-01-25 02:58:00
7:58 PM,53.1,53.1,100,30.19,6.0,Calm,Calm,-,N/A,,Overcast,0,2013-01-25 03:58:00
8:58 PM,51.8,51.8,100,30.19,5.0,Calm,Calm,-,N/A,,Overcast,0,2013-01-25 04:58:00
9:08 PM,51.8,51.8,100,30.19,5.0,WSW,2.3,-,N/A,,Overcast,250,2013-01-25 05:08:00
9:28 PM,51.8,51.8,100,30.19,4.0,SSW,3.5,-,N/A,,Overcast,200,2013-01-25 05:28:00
9:38 PM,51.8,51.8,100,30.19,2.5,South,3.5,-,N/A,,Overcast,190,2013-01-25 05:38:00
9:58 PM,51.8,51.8,100,30.20,5.0,SSW,1.2,-,N/A,,Overcast,200,2013-01-25 05:58:00
10:38 PM,51.8,51.8,100,30.19,5.0,Calm,Calm,-,N/A,,Overcast,0,2013-01-25 06:38:00
10:58 PM,52.5,52.3,99,30.20,5.0,Calm,Calm,-,N/A,,Overcast,0,2013-01-25 06:58:00
11:38 PM,51.8,51.8,100,30.20,5.0,Calm,Calm,-,N/A,,Overcast,0,2013-01-25 07:38:00
11:58 PM,51.8,51.8,100,30.19,2.5,ESE,4.6,-,N/A,,Overcast,110,2013-01-25 07:58:00